Ceredo, WV

3:45 AM EDT on July 24, 2016 (GMT -0400)
Tri-State / Ferguson

Weather History for KHTS - October, 2012

Change the Weather History Date:

Monday, October 8, 2012

  Actual Average Record
Temperature  
Mean Temperature 42 °F 59 °F  
Max Temperature 48 °F 71 °F 93 °F (2007)
Min Temperature 36 °F 47 °F 29 °F (2000)
Degree Days  
Heating Degree Days 23 7  
Month to date heating degree days 59 48  
Since 1 July heating degree days 129 106  
Cooling Degree Days 0 1  
Month to date cooling degree days 12 10  
Year to date cooling degree days 1317 1121  
Moisture  
Dew Point 40 °F    
Average Humidity 93    
Maximum Humidity 100    
Minimum Humidity 86    
Precipitation  
Precipitation 0.07 in 0.09 in 1.38 in (1903)
Month to date precipitation 0.45 0.70  
Year to date precipitation 32.38 33.73  
Snow  
Snow 0.00 in - - ()
Month to date snowfall 0.0  
Since 1 September snowfall 0.0  
Snow Depth 0.00 in    
Sea Level Pressure  
Sea Level Pressure 30.21 in    
Wind  
Wind Speed 1 mph (ESE)    
Max Wind Speed 7 mph    
Max Gust Speed 10 mph    
Visibility 6 miles    
Events Fog , Rain    
T = Trace of Precipitation, MM = Missing Value Source: NWS Daily Summary

Daily Weather History Graph

Daily Weather History Graph

Search for Another Location

Airport or City:

Trip Planner

Search our weather history database for the weather conditions in past years. The results will help you decide how hot, cold, wet, or windy it might be!

Date:

Astronomy

Oct. 08, 2012 Rise Set
Actual Time 7:32 AM EDT 7:01 PM EDT
Civil Twilight 7:06 AM EDT 7:28 PM EDT
Nautical Twilight 6:35 AM EDT 7:58 PM EDT
Astronomical Twilight 6:05 AM EDT 8:29 PM EDT
Moon 12:16 AM EDT (10/8) 2:45 PM EDT (10/8)
Length of Visible Light 12h 21m
Length of Day
11h 28m
Waning Gibbous, 46% of the Moon is Illuminated
Oct 8
Waning Gibbous
Oct 15
New
Oct 21
First Quarter
Oct 29
Full
Nov 6
Last Quarter

Hourly Weather History & Observations

Time (EDT) Temp. Windchill Dew Point Humidity Pressure Visibility Wind Dir Wind Speed Gust Speed Precip Events Conditions
12:51 AM 39.0 °F - 37.9 °F 96% 30.19 in 6.0 mi Calm Calm - N/A   Clear
1:51 AM 37.9 °F - 37.0 °F 97% 30.19 in 7.0 mi Calm Calm - N/A   Clear
2:51 AM 39.0 °F - 37.9 °F 96% 30.22 in 9.0 mi Calm Calm - N/A   Clear
3:23 AM 39.2 °F - 37.4 °F 93% 30.20 in 7.0 mi Calm Calm - N/A   Scattered Clouds
3:32 AM 39.2 °F - 37.4 °F 93% 30.19 in 6.0 mi Calm Calm - N/A   Mostly Cloudy
3:51 AM 39.2 °F - 37.4 °F 93% 30.20 in 5.0 mi Calm Calm - N/A   Mostly Cloudy
4:05 AM 39.2 °F - 39.2 °F 100% 30.20 in 1.8 mi Calm Calm - N/A   Overcast
4:09 AM 39.2 °F - 39.2 °F 100% 30.20 in 0.8 mi Calm Calm - N/A   Mist
4:23 AM 39.2 °F - 39.2 °F 100% 30.20 in 0.2 mi Calm Calm - N/A Fog Fog
4:38 AM 39.2 °F - 39.2 °F 100% 30.20 in 1.0 mi Calm Calm - N/A   Mist
4:45 AM 39.2 °F - 39.2 °F 100% 30.20 in 3.0 mi Calm Calm - N/A   Mostly Cloudy
4:51 AM 39.9 °F - 39.0 °F 97% 30.21 in 3.0 mi Calm Calm - N/A   Scattered Clouds
5:51 AM 39.9 °F 37.8 °F 39.0 °F 97% 30.20 in 6.0 mi NE 3.5 mph - N/A   Clear
6:51 AM 41.0 °F - 39.9 °F 96% 30.22 in 7.0 mi Calm Calm - N/A   Clear
7:51 AM 41.0 °F - 39.0 °F 93% 30.21 in 8.0 mi Calm Calm - N/A   Clear
8:51 AM 42.1 °F - 39.9 °F 92% 30.23 in 7.0 mi Calm Calm - N/A   Mostly Cloudy
9:51 AM 43.0 °F - 41.0 °F 93% 30.25 in 8.0 mi Calm Calm - N/A   Overcast
10:51 AM 43.0 °F - 42.1 °F 97% 30.26 in 9.0 mi Calm Calm - N/A   Overcast
11:51 AM 44.1 °F - 43.0 °F 96% 30.26 in 5.0 mi Calm Calm - 0.03 in Rain Light Rain
12:51 PM 44.1 °F 41.5 °F 42.1 °F 93% 30.25 in 6.0 mi SE 4.6 mph - 0.03 in Rain Light Rain
1:38 PM 46.4 °F - 42.8 °F 87% 30.24 in 6.0 mi Calm Calm - 0.00 in Rain Light Rain
1:46 PM 46.4 °F 44.3 °F 42.8 °F 87% 30.24 in 6.0 mi Variable 4.6 mph - 0.01 in Rain Light Rain
1:51 PM 45.0 °F 42.6 °F 42.1 °F 90% 30.25 in 6.0 mi SE 4.6 mph - 0.01 in Rain Light Rain
2:51 PM 46.0 °F 44.8 °F 42.1 °F 86% 30.23 in 6.0 mi SSE 3.5 mph - 0.00 in   Overcast
3:51 PM 46.9 °F - 42.1 °F 83% 30.22 in 7.0 mi ESE 3.5 mph - N/A   Overcast
4:51 PM 46.9 °F - 42.1 °F 83% 30.20 in 10.0 mi Calm Calm - N/A   Overcast
5:51 PM 46.9 °F - 42.1 °F 83% 30.20 in 10.0 mi Calm Calm - N/A   Overcast
6:51 PM 46.9 °F - 42.1 °F 83% 30.19 in 10.0 mi Calm Calm - N/A   Overcast
7:51 PM 44.6 °F - 42.8 °F 93% 30.18 in 10.0 mi Calm Calm - N/A   Overcast
8:24 PM 44.6 °F - 41.0 °F 87% 30.19 in 10.0 mi Calm Calm - N/A   Mostly Cloudy
8:51 PM 45.0 °F - 42.1 °F 90% 30.20 in 10.0 mi Calm Calm - N/A   Mostly Cloudy
9:51 PM 43.0 °F - 41.0 °F 93% 30.20 in 9.0 mi Calm Calm - N/A   Scattered Clouds
10:51 PM 42.1 °F - 39.9 °F 92% 30.21 in 4.0 mi Calm Calm - N/A   Clear
11:00 PM 42.8 °F - 39.2 °F 87% 30.20 in 1.0 mi Calm Calm - N/A   Mist
11:06 PM 41.0 °F - 39.2 °F 93% 30.19 in 0.2 mi Calm Calm - N/A Fog Fog
11:51 PM 37.9 °F 35.5 °F 37.0 °F 97% 30.20 in 0.2 mi East 3.5 mph - N/A Fog Fog